| time (UTC) | temp C | wind direction | speed KPH | gust KPH | rain 1hr cm | rain 24hr cm | rain mn cm | humidity % | barometer mb |
| 20260510194521 | 10 | 295 | 0.0 | 0.0 | 0.00 | 0.00 | 0.00 | 77 | 1012.6 |
| 20260510193008 | 10 | 276 | 0.0 | 0.0 | 0.00 | 0.00 | 0.00 | 76 | 1012.4 |
| 20260510191527 | 10 | 276 | 0.0 | 0.0 | 0.00 | 0.00 | 0.00 | 75 | 1012.2 |
| 20260510190104 | 10 | 276 | 0.0 | 0.0 | 0.00 | 0.00 | 0.00 | 75 | 1012.2 |
| 20260510184518 | 10 | 280 | 0.0 | 0.0 | 0.00 | 0.00 | 0.00 | 74 | 1012.1 |
| 20260510183101 | 11 | 280 | 0.0 | 0.0 | 0.00 | 0.00 | 0.00 | 74 | 1012.1 |
| 20260510181517 | 11 | 280 | 0.0 | 0.0 | 0.00 | 0.00 | 0.00 | 74 | 1012.1 |
| 20260510180006 | 11 | 280 | 0.0 | 0.0 | 0.00 | 0.00 | 0.00 | 73 | 1012.1 |
| 20260510174600 | 11 | 280 | 0.0 | 0.0 | 0.00 | 0.00 | 0.00 | 73 | 1012.1 |
| 20260510173010 | 11 | 281 | 0.0 | 0.0 | 0.00 | 0.00 | 0.00 | 72 | 1012.0 |
| 20260510171506 | 11 | 287 | 0.0 | 0.0 | 0.00 | 0.00 | 0.00 | 71 | 1012.1 |
| 20260510164527 | 11 | 259 | 0.0 | 0.0 | 0.00 | 0.00 | 0.00 | 69 | 1012.1 |
| 20260510161519 | 12 | 236 | 0.0 | 0.0 | 0.00 | 0.00 | 0.00 | 67 | 1012.3 |
| 20260510160021 | 12 | 270 | 0.0 | 0.0 | 0.00 | 0.00 | 0.00 | 67 | 1012.2 |
| 20260510154604 | 12 | 270 | 0.0 | 0.0 | 0.00 | 0.00 | 0.00 | 65 | 1012.2 |
| 20260510153104 | 12 | 272 | 0.0 | 0.0 | 0.00 | 0.00 | 0.00 | 64 | 1012.3 |
| 20260510151502 | 12 | 269 | 0.0 | 0.0 | 0.00 | 0.00 | 0.00 | 62 | 1012.4 |
| 20260510150032 | 12 | 269 | 0.0 | 0.0 | 0.00 | 0.00 | 0.00 | 61 | 1012.5 |
| 20260510144514 | 13 | 267 | 0.0 | 0.0 | 0.00 | 0.00 | 0.00 | 60 | 1012.6 |
| 20260510143008 | 13 | 276 | 0.0 | 0.0 | 0.00 | 0.00 | 0.00 | 58 | 1012.6 |
| 20260510140026 | 14 | 266 | 0.0 | 0.0 | 0.00 | 0.00 | 0.00 | 55 | 1012.6 |
| 20260510134603 | 15 | 156 | 0.0 | 0.0 | 0.00 | 0.00 | 0.00 | 53 | 1012.6 |
| 20260510133007 | 15 | 141 | 0.0 | 0.0 | 0.00 | 0.00 | 0.00 | 50 | 1012.6 |
| 20260510131601 | 16 | 141 | 0.0 | 0.0 | 0.00 | 0.00 | 0.00 | 48 | 1012.6 |
| 20260510130018 | 17 | 141 | 1.6 | 0.0 | 0.00 | 0.00 | 0.00 | 49 | 1012.6 |
| 20260510124528 | 17 | 124 | 3.2 | 0.0 | 0.00 | 0.00 | 0.00 | 51 | 1012.6 |
| 20260510123057 | 17 | 109 | 1.6 | 0.0 | 0.00 | 0.00 | 0.00 | 48 | 1012.6 |
| 20260510121554 | 17 | 107 | 3.2 | 0.0 | 0.00 | 0.00 | 0.00 | 47 | 1012.6 |
| 20260510120100 | 17 | 93 | 3.2 | 0.0 | 0.00 | 0.00 | 0.00 | 47 | 1012.6 |
| 20260510114557 | 17 | 137 | 0.0 | 0.0 | 0.00 | 0.00 | 0.00 | 43 | 1012.4 |
| 20260510113027 | 17 | 307 | 0.0 | 0.0 | 0.00 | 0.00 | 0.00 | 42 | 1012.3 |
| 20260510111513 | 17 | 64 | 0.0 | 0.0 | 0.00 | 0.00 | 0.00 | 41 | 1012.2 |
| 20260510110034 | 17 | 282 | 0.0 | 0.0 | 0.00 | 0.00 | 0.00 | 37 | 1011.7 |
| 20260510103055 | 18 | 279 | 0.0 | 0.0 | 0.00 | 0.00 | 0.00 | 36 | 1011.1 |
| 20260510101504 | 19 | 266 | 0.0 | 0.0 | 0.00 | 0.00 | 0.00 | 34 | 1011.1 |
| 20260510094518 | 20 | 260 | 0.0 | 0.0 | 0.00 | 0.00 | 0.00 | 29 | 1010.6 |
| 20260510093042 | 21 | 257 | 0.0 | 0.0 | 0.00 | 0.00 | 0.00 | 28 | 1010.6 |
| 20260510091517 | 21 | 257 | 0.0 | 0.0 | 0.00 | 0.00 | 0.00 | 25 | 1010.5 |
| 20260510090121 | 22 | 250 | 0.0 | 0.0 | 0.00 | 0.00 | 0.00 | 24 | 1010.2 |
| 20260510084552 | 23 | 225 | 0.0 | 0.0 | 0.00 | 0.00 | 0.00 | 23 | 1010.1 |
| 20260510083021 | 24 | 242 | 0.0 | 0.0 | 0.00 | 0.00 | 0.00 | 22 | 1010.0 |
| 20260510081529 | 25 | 248 | 0.0 | 0.0 | 0.00 | 0.00 | 0.00 | 20 | 1010.1 |
| 20260510080026 | 26 | 244 | 0.0 | 0.0 | 0.00 | 0.00 | 0.00 | 19 | 1010.0 |
| 20260510074519 | 26 | 161 | 0.0 | 0.0 | 0.00 | 0.00 | 0.00 | 19 | 1009.9 |
| 20260510073103 | 27 | 148 | 0.0 | 0.0 | 0.00 | 0.00 | 0.00 | 18 | 1009.9 |
| 20260510071537 | 27 | 108 | 0.0 | 0.0 | 0.00 | 0.00 | 0.00 | 18 | 1009.8 |
| 20260510064520 | 27 | 143 | 0.0 | 0.0 | 0.00 | 0.00 | 0.00 | 18 | 1009.8 |
| 20260510063011 | 27 | 180 | 0.0 | 0.0 | 0.00 | 0.00 | 0.00 | 18 | 1009.8 |
| 20260510061505 | 27 | 289 | 0.0 | 0.0 | 0.00 | 0.00 | 0.00 | 17 | 1009.9 |
| 20260510054505 | 26 | 155 | 1.6 | 0.0 | 0.00 | 0.00 | 0.00 | 18 | 1010.0 |
| 20260510053004 | 26 | 266 | 1.6 | 0.0 | 0.00 | 0.00 | 0.00 | 21 | 1010.1 |
| 20260510051505 | 25 | 269 | 0.0 | 0.0 | 0.00 | 0.00 | 0.00 | 22 | 1010.1 |
| 20260510044528 | 25 | 128 | 1.6 | 0.0 | 0.00 | 0.00 | 0.00 | 20 | 1010.5 |
| 20260510043022 | 26 | 125 | 3.2 | 0.0 | 0.00 | 0.00 | 0.00 | 18 | 1010.5 |
| 20260510040030 | 27 | 160 | 1.6 | 0.0 | 0.00 | 0.00 | 0.00 | 17 | 1010.7 |
| 20260510034509 | 26 | 248 | 1.6 | 0.0 | 0.00 | 0.00 | 0.00 | 17 | 1010.9 |
| 20260510031502 | 25 | 288 | 3.2 | 0.0 | 0.00 | 0.00 | 0.00 | 18 | 1011.0 |
| 20260510030006 | 25 | 236 | 3.2 | 0.0 | 0.00 | 0.00 | 0.00 | 18 | 1011.3 |
| 20260510024508 | 25 | 305 | 3.2 | 0.0 | 0.00 | 0.00 | 0.00 | 18 | 1011.5 |
| 20260510023028 | 23 | 298 | 3.2 | 0.0 | 0.00 | 0.00 | 0.00 | 19 | 1011.6 |
| 20260510021511 | 23 | 0 | 1.6 | 0.0 | 0.00 | 0.00 | 0.00 | 24 | 1011.7 |
| 20260510020008 | 22 | 263 | 1.6 | 0.0 | 0.00 | 0.00 | 0.00 | 24 | 1011.9 |
| 20260510014525 | 22 | 271 | 3.2 | 0.0 | 0.00 | 0.00 | 0.00 | 26 | 1012.0 |
| 20260510013004 | 21 | 101 | 3.2 | 0.0 | 0.00 | 0.00 | 0.00 | 28 | 1012.2 |
| 20260510011559 | 22 | 301 | 3.2 | 0.0 | 0.00 | 0.00 | 0.00 | 25 | 1012.3 |
| 20260510004523 | 21 | 258 | 1.6 | 0.0 | 0.00 | 0.00 | 0.00 | 28 | 1012.8 |
| 20260510003033 | 20 | 125 | 1.6 | 0.0 | 0.00 | 0.00 | 0.00 | 28 | 1012.8 |
| 20260510001604 | 20 | 116 | 1.6 | 0.0 | 0.00 | 0.00 | 0.00 | 27 | 1012.9 |
| 20260510000025 | 20 | 152 | 0.0 | 0.0 | 0.00 | 0.00 | 0.00 | 29 | 1013.0 |
| 20260509234616 | 19 | 248 | 0.0 | 0.0 | 0.00 | 0.00 | 0.00 | 36 | 1013.1 |
| 20260509233056 | 18 | 120 | 1.6 | 0.0 | 0.00 | 0.00 | 0.00 | 34 | 1013.2 |
| 20260509230012 | 16 | 295 | 0.0 | 0.0 | 0.00 | 0.00 | 0.00 | 47 | 1013.1 |
| 20260509224555 | 15 | 297 | 0.0 | 0.0 | 0.00 | 0.00 | 0.00 | 54 | 1013.0 |
| 20260509223029 | 13 | 286 | 0.0 | 0.0 | 0.00 | 0.00 | 0.00 | 56 | 1013.0 |
| 20260509221515 | 12 | 191 | 0.0 | 0.0 | 0.00 | 0.00 | 0.00 | 62 | 1013.0 |
| 20260509220100 | 12 | 134 | 0.0 | 0.0 | 0.00 | 0.00 | 0.00 | 64 | 1013.0 |
| 20260509214508 | 11 | 110 | 0.0 | 0.0 | 0.00 | 0.00 | 0.00 | 68 | 1012.9 |
| 20260509213104 | 10 | 260 | 0.0 | 0.0 | 0.00 | 0.00 | 0.00 | 68 | 1012.8 |
| 20260509211507 | 9 | 279 | 0.0 | 0.0 | 0.00 | 0.00 | 0.00 | 69 | 1012.6 |
| 20260509210007 | 8 | 99 | 0.0 | 0.0 | 0.00 | 0.00 | 0.00 | 70 | 1012.4 |
| 20260509204504 | 8 | 282 | 1.6 | 0.0 | 0.00 | 0.00 | 0.00 | 70 | 1012.2 |
| 20260509203012 | 8 | 320 | 0.0 | 0.0 | 0.00 | 0.00 | 0.00 | 69 | 1011.9 |
| 20260509201508 | 8 | 300 | 0.0 | 0.0 | 0.00 | 0.00 | 0.00 | 68 | 1011.7 |
| 20260509200008 | 8 | 305 | 0.0 | 0.0 | 0.00 | 0.00 | 0.00 | 67 | 1011.3 |